Total_Precipitation_Accumulation
0.17 0.18 0.25 0.46 0.52 0.45 0.47 0.48 0.56 0.50 0.53 0.62 0.68 0.71 0.73 0.75 0.69 0.62 0.60 0.55 0.50 0.46 0.45 0.46 0.51 0.59 0.72 1.02 1.24 1.23 1.20 1.06 0.95 0.88 0.81 0.75 0.72 0.75 0.71 0.64 0.62 0.62 0.71 0.80
0.15 0.14 0.17 0.19 0.16 0.16 0.19 0.26 0.34 0.39 0.50 0.55 0.58 0.58 0.65 0.65 0.51 0.50 0.52 0.50 0.48 0.42 0.38 0.34 0.35 0.42 0.52 0.72 0.90 0.98 1.00 0.93 0.80 0.78 0.71 0.62 0.66 0.75 0.76 0.65 0.59 0.58 0.62 0.60
0.21 0.17 0.18 0.16 0.10 0.17 0.21 0.24 0.29 0.43 0.56 0.59 0.61 0.68 1.00 1.01 0.70 0.56 0.55 0.49 0.49 0.46 0.42 0.40 0.38 0.39 0.42 0.49 0.61 0.68 0.72 0.70 0.59 0.59 0.68 0.70 0.72 0.72 0.65 0.57 0.59 0.58 0.52 0.48
0.28 0.27 0.32 0.17 0.10 0.16 0.20 0.23 0.24 0.29 0.32 0.36 0.48 0.62 0.78 0.86 0.72 0.59 0.57 0.48 0.47 0.45 0.39 0.37 0.36 0.37 0.41 0.43 0.45 0.48 0.46 0.42 0.37 0.46 0.59 0.62 0.58 0.55 0.50 0.50 0.55 0.60 0.53 0.48
0.35 0.44 0.34 0.14 0.10 0.13 0.15 0.16 0.15 0.19 0.18 0.19 0.23 0.24 0.25 0.29 0.32 0.33 0.31 0.27 0.29 0.32 0.28 0.25 0.26 0.28 0.29 0.27 0.29 0.30 0.28 0.27 0.30 0.32 0.36 0.35 0.32 0.34 0.40 0.46 0.51 0.46 0.50 0.64
0.40 0.45 0.35 0.17 0.10 0.08 0.13 0.22 0.14 0.14 0.13 0.12 0.15 0.20 0.17 0.21 0.16 0.12 0.12 0.14 0.18 0.24 0.27 0.23 0.23 0.27 0.26 0.26 0.27 0.27 0.27 0.27 0.29 0.30 0.33 0.32 0.31 0.32 0.35 0.39 0.43 0.45 0.49 0.63
0.33 0.43 0.26 0.12 0.11 0.11 0.21 0.21 0.11 0.08 0.07 0.07 0.08 0.11 0.11 0.16 0.14 0.11 0.13 0.13 0.15 0.19 0.24 0.25 0.23 0.24 0.24 0.24 0.27 0.32 0.33 0.30 0.29 0.29 0.31 0.35 0.38 0.37 0.35 0.35 0.38 0.42 0.46 0.50
0.29 0.36 0.28 0.12 0.13 0.19 0.18 0.11 0.09 0.08 0.07 0.07 0.07 0.07 0.07 0.10 0.12 0.10 0.11 0.12 0.14 0.16 0.21 0.26 0.26 0.25 0.28 0.27 0.27 0.33 0.33 0.31 0.30 0.32 0.33 0.36 0.43 0.42 0.40 0.39 0.36 0.36 0.41 0.49
0.30 0.28 0.19 0.14 0.15 0.16 0.16 0.14 0.11 0.10 0.09 0.06 0.07 0.07 0.06 0.08 0.13 0.09 0.08 0.12 0.15 0.16 0.20 0.25 0.26 0.30 0.32 0.31 0.31 0.32 0.32 0.32 0.33 0.34 0.35 0.36 0.39 0.40 0.42 0.41 0.41 0.40 0.41 0.46
0.22 0.16 0.12 0.14 0.16 0.14 0.13 0.13 0.12 0.13 0.13 0.11 0.10 0.09 0.09 0.09 0.12 0.11 0.09 0.09 0.12 0.14 0.18 0.25 0.29 0.31 0.36 0.37 0.37 0.37 0.38 0.38 0.37 0.38 0.40 0.40 0.42 0.45 0.48 0.49 0.49 0.47 0.46 0.50
0.19 0.12 0.10 0.11 0.14 0.16 0.14 0.12 0.13 0.13 0.14 0.14 0.15 0.15 0.12 0.11 0.12 0.11 0.13 0.13 0.12 0.13 0.16 0.22 0.28 0.30 0.35 0.38 0.41 0.40 0.39 0.42 0.44 0.44 0.44 0.46 0.47 0.49 0.50 0.48 0.50 0.48 0.49 0.51
0.17 0.12 0.12 0.11 0.11 0.14 0.16 0.15 0.13 0.12 0.12 0.14 0.14 0.14 0.13 0.13 0.13 0.13 0.14 0.14 0.14 0.15 0.15 0.17 0.20 0.23 0.27 0.30 0.36 0.40 0.42 0.40 0.40 0.43 0.46 0.45 0.45 0.45 0.48 0.49 0.50 0.47 0.44 0.47
0.09 0.09 0.09 0.09 0.11 0.12 0.15 0.15 0.12 0.11 0.12 0.13 0.15 0.15 0.14 0.15 0.15 0.15 0.14 0.14 0.17 0.17 0.15 0.15 0.15 0.18 0.21 0.24 0.30 0.37 0.39 0.38 0.36 0.38 0.39 0.41 0.43 0.42 0.45 0.46 0.46 0.44 0.43 0.45
0.06 0.07 0.08 0.08 0.09 0.10 0.12 0.12 0.10 0.11 0.12 0.13 0.15 0.17 0.18 0.19 0.18 0.18 0.17 0.16 0.18 0.18 0.19 0.17 0.17 0.18 0.19 0.22 0.25 0.30 0.35 0.43 0.41 0.37 0.40 0.42 0.41 0.42 0.46 0.49 0.51 0.47 0.45 0.45
0.05 0.05 0.07 0.07 0.08 0.08 0.09 0.11 0.12 0.12 0.13 0.13 0.14 0.17 0.20 0.19 0.19 0.20 0.20 0.19 0.17 0.18 0.21 0.22 0.22 0.21 0.20 0.20 0.23 0.26 0.30 0.37 0.43 0.43 0.42 0.44 0.46 0.43 0.44 0.46 0.48 0.49 0.50 0.49
0.09 0.06 0.06 0.06 0.07 0.08 0.09 0.11 0.14 0.15 0.15 0.16 0.16 0.18 0.20 0.20 0.21 0.23 0.25 0.23 0.21 0.21 0.21 0.23 0.24 0.25 0.25 0.24 0.25 0.26 0.29 0.38 0.44 0.47 0.46 0.45 0.47 0.46 0.45 0.43 0.44 0.45 0.45 0.47
0.15 0.12 0.10 0.10 0.09 0.08 0.08 0.10 0.13 0.17 0.18 0.18 0.20 0.20 0.21 0.21 0.21 0.22 0.25 0.25 0.24 0.22 0.22 0.22 0.22 0.23 0.25 0.24 0.25 0.25 0.28 0.34 0.41 0.46 0.45 0.45 0.45 0.46 0.45 0.45 0.45 0.47 0.47 0.53
0.16 0.15 0.13 0.13 0.11 0.09 0.08 0.09 0.11 0.15 0.17 0.17 0.17 0.18 0.19 0.21 0.21 0.21 0.23 0.24 0.25 0.24 0.21 0.20 0.20 0.20 0.22 0.22 0.23 0.26 0.29 0.32 0.36 0.40 0.46 0.48 0.46 0.44 0.44 0.43 0.42 0.46 0.48 0.53
0.14 0.14 0.13 0.11 0.11 0.10 0.10 0.09 0.10 0.11 0.13 0.14 0.15 0.15 0.15 0.18 0.19 0.19 0.20 0.21 0.22 0.22 0.20 0.19 0.22 0.22 0.21 0.23 0.26 0.27 0.32 0.34 0.36 0.39 0.43 0.50 0.52 0.48 0.47 0.47 0.47 0.47 0.49 0.50
0.10 0.09 0.10 0.09 0.10 0.11 0.11 0.10 0.11 0.11 0.12 0.12 0.13 0.13 0.13 0.14 0.16 0.18 0.18 0.18 0.21 0.22 0.20 0.19 0.18 0.17 0.18 0.21 0.28 0.31 0.37 0.38 0.38 0.38 0.40 0.42 0.46 0.49 0.52 0.53 0.52 0.52 0.51 0.52
0.11 0.10 0.10 0.09 0.09 0.09 0.11 0.11 0.10 0.09 0.09 0.10 0.11 0.11 0.11 0.13 0.16 0.18 0.19 0.19 0.20 0.21 0.20 0.21 0.18 0.18 0.20 0.25 0.28 0.28 0.34 0.39 0.40 0.41 0.42 0.45 0.47 0.49 0.54 0.59 0.58 0.57 0.59 0.59
0.12 0.11 0.10 0.10 0.09 0.08 0.08 0.09 0.09 0.08 0.07 0.08 0.09 0.10 0.11 0.12 0.13 0.15 0.19 0.23 0.25 0.27 0.23 0.20 0.20 0.24 0.30 0.35 0.32 0.30 0.33 0.37 0.42 0.44 0.46 0.50 0.52 0.52 0.54 0.58 0.60 0.60 0.59 0.60
0.13 0.13 0.12 0.11 0.10 0.09 0.07 0.07 0.07 0.07 0.07 0.08 0.09 0.11 0.14 0.15 0.15 0.18 0.22 0.25 0.26 0.29 0.27 0.28 0.32 0.35 0.38 0.35 0.33 0.33 0.34 0.37 0.41 0.42 0.45 0.50 0.54 0.55 0.57 0.59 0.62 0.64 0.65 0.63
0.15 0.15 0.15 0.15 0.14 0.13 0.12 0.10 0.09 0.09 0.08 0.09 0.10 0.12 0.15 0.18 0.20 0.22 0.25 0.30 0.32 0.32 0.28 0.29 0.36 0.41 0.42 0.36 0.33 0.32 0.34 0.38 0.42 0.44 0.46 0.49 0.51 0.53 0.56 0.60 0.66 0.70 0.73 0.75
0.17 0.18 0.20 0.20 0.21 0.21 0.20 0.17 0.15 0.14 0.14 0.14 0.14 0.15 0.16 0.17 0.21 0.24 0.27 0.28 0.32 0.32 0.28 0.30 0.35 0.38 0.34 0.33 0.34 0.34 0.34 0.37 0.42 0.44 0.46 0.49 0.52 0.54 0.57 0.59 0.66 0.75 0.79 0.81
0.19 0.20 0.23 0.24 0.23 0.23 0.22 0.21 0.22 0.22 0.22 0.21 0.19 0.18 0.17 0.16 0.17 0.20 0.23 0.25 0.30 0.33 0.30 0.29 0.29 0.31 0.30 0.31 0.33 0.35 0.36 0.37 0.39 0.40 0.42 0.48 0.50 0.52 0.55 0.57 0.62 0.69 0.76 0.79
0.26 0.23 0.23 0.27 0.28 0.27 0.25 0.27 0.31 0.31 0.32 0.30 0.29 0.25 0.22 0.21 0.20 0.20 0.20 0.22 0.25 0.29 0.32 0.33 0.32 0.32 0.33 0.33 0.33 0.36 0.39 0.42 0.43 0.45 0.46 0.49 0.53 0.58 0.63 0.64 0.66 0.70 0.73 0.74